C2302 KFMH-KFMH

Flight info

Callsign C2302
Flight time 0h 6m
Altitude 12000
Route VFR NE
Aircraft CN35/M-SDE3FGHIRWY/L

Departure

Time 2026-04-21 04:18
Airport Cape Cod Coast Guard Air Station (KFMH)

Arrival

Time 2026-04-21 04:24
Airport Cape Cod Coast Guard Air Station (KFMH)
Time Latitude Longitude Altitude Speed Heading
2026-04-21 02:04 42.75845 -69.31960 2957 ft 220 kts 360°
2026-04-21 02:04 42.77573 -69.31989 2072 ft 270 kts 360°
2026-04-21 02:05 42.79431 -69.32014 2521 ft 254 kts
2026-04-21 02:05 42.81117 -69.32039 3446 ft 235 kts
2026-04-21 02:05 42.82760 -69.32066 3908 ft 240 kts
2026-04-21 02:05 42.84479 -69.32095 3992 ft 254 kts
2026-04-21 02:06 42.86279 -69.32122 4046 ft 263 kts 360°
2026-04-21 02:06 42.88127 -69.32147 4111 ft 267 kts
2026-04-21 02:06 42.89987 -69.32171 4240 ft 267 kts 360°
2026-04-21 02:06 42.91851 -69.32194 4396 ft 268 kts 360°
2026-04-21 02:07 42.93710 -69.32223 4564 ft 268 kts 359°
2026-04-21 02:07 42.95610 -69.32275 4422 ft 277 kts 359°
2026-04-21 02:07 42.97544 -69.32338 4350 ft 279 kts 359°
2026-04-21 02:07 42.99479 -69.32435 4316 ft 278 kts 357°
2026-04-21 02:08 43.01404 -69.32523 4303 ft 267 kts 359°
2026-04-21 02:08 43.02997 -69.32540 4285 ft 197 kts
2026-04-21 02:08 43.04207 -69.32483 4283 ft 154 kts
2026-04-21 02:08 43.05175 -69.32379 4284 ft 126 kts
2026-04-21 02:09 43.05990 -69.32281 4284 ft 116 kts
2026-04-21 02:09 43.06901 -69.32151 4311 ft 145 kts
2026-04-21 02:09 43.08022 -69.32156 4314 ft 175 kts 356°
2026-04-21 02:09 43.09296 -69.32331 4307 ft 192 kts 352°
2026-04-21 02:10 43.10496 -69.33174 4283 ft 206 kts 311°
2026-04-21 02:10 43.10937 -69.35029 4290 ft 217 kts 274°
2026-04-21 02:10 43.10827 -69.37118 4301 ft 222 kts 265°
2026-04-21 02:10 43.10489 -69.39198 4302 ft 226 kts 258°
2026-04-21 02:11 43.10084 -69.41287 4301 ft 229 kts 258°
2026-04-21 02:11 43.09658 -69.43390 4302 ft 230 kts 256°
2026-04-21 02:11 43.09228 -69.45504 4304 ft 231 kts 257°
2026-04-21 02:11 43.08801 -69.47624 4300 ft 231 kts 257°
2026-04-21 02:12 43.08371 -69.49810 4301 ft 246 kts 258°
2026-04-21 02:12 43.07913 -69.52143 4298 ft 254 kts 257°
2026-04-21 02:12 43.07455 -69.54468 4296 ft 259 kts 257°
2026-04-21 02:12 43.06993 -69.56854 4298 ft 260 kts 258°
2026-04-21 02:13 43.06652 -69.59278 4300 ft 260 kts 264°
2026-04-21 02:13 43.06725 -69.61748 4288 ft 257 kts 287°
2026-04-21 02:13 43.07547 -69.63842 4291 ft 254 kts 309°
2026-04-21 02:13 43.08615 -69.65518 4293 ft 197 kts 313°
2026-04-21 02:14 43.09218 -69.67080 4296 ft 180 kts 288°
2026-04-21 02:14 43.09393 -69.68895 4299 ft 205 kts 277°
2026-04-21 02:14 43.09489 -69.70888 4310 ft 218 kts 272°
2026-04-21 02:14 43.09123 -69.72933 4302 ft 225 kts 243°
2026-04-21 02:15 43.08009 -69.74432 4300 ft 229 kts 211°
2026-04-21 02:15 43.06514 -69.75134 4305 ft 234 kts 189°
2026-04-21 02:15 43.04885 -69.75041 4303 ft 238 kts 162°
2026-04-21 02:15 43.03332 -69.74264 4308 ft 239 kts 154°
2026-04-21 02:16 43.01912 -69.73100 4310 ft 238 kts 137°
2026-04-21 02:16 43.01014 -69.71263 4312 ft 233 kts 103°
2026-04-21 02:16 43.00985 -69.69067 4320 ft 229 kts 74°
2026-04-21 02:16 43.01572 -69.67100 4312 ft 226 kts 55°
2026-04-21 02:17 43.02541 -69.65425 4303 ft 225 kts 45°
2026-04-21 02:17 43.03609 -69.63861 4300 ft 224 kts 44°
2026-04-21 02:17 43.04680 -69.62307 4297 ft 225 kts 45°
2026-04-21 02:17 43.05707 -69.60776 4301 ft 226 kts 46°
2026-04-21 02:18 43.06742 -69.59184 4305 ft 226 kts 46°
2026-04-21 02:18 43.07781 -69.57553 4307 ft 227 kts 47°
2026-04-21 02:18 43.08812 -69.55911 4303 ft 227 kts 47°
2026-04-21 02:18 43.09851 -69.54259 4300 ft 232 kts 47°
2026-04-21 02:19 43.10916 -69.52581 4300 ft 234 kts 47°
2026-04-21 02:19 43.12001 -69.50921 4304 ft 234 kts 44°
2026-04-21 02:19 43.13193 -69.49395 4306 ft 235 kts 37°
2026-04-21 02:19 43.14547 -69.48170 4299 ft 228 kts 23°
2026-04-21 02:20 43.16055 -69.48103 4295 ft 222 kts 336°
2026-04-21 02:20 43.17084 -69.49638 4306 ft 227 kts 292°
2026-04-21 02:20 43.17265 -69.51784 4296 ft 229 kts 269°
2026-04-21 02:20 43.17174 -69.53956 4303 ft 229 kts 267°
2026-04-21 02:21 43.17052 -69.56135 4300 ft 230 kts 264°
2026-04-21 02:21 43.16735 -69.58281 4306 ft 231 kts 255°
2026-04-21 02:21 43.15992 -69.60219 4305 ft 234 kts 228°
2026-04-21 02:21 43.14547 -69.61219 4309 ft 239 kts 190°
2026-04-21 02:22 43.12897 -69.61099 4311 ft 239 kts 166°
2026-04-21 02:22 43.11299 -69.60479 4303 ft 238 kts 162°
2026-04-21 02:22 43.09702 -69.59869 4299 ft 239 kts 164°
2026-04-21 02:22 43.08070 -69.59403 4302 ft 240 kts 169°
2026-04-21 02:23 43.06411 -69.59061 4304 ft 242 kts 171°
2026-04-21 02:23 43.04745 -69.58737 4306 ft 242 kts 170°
2026-04-21 02:23 43.03083 -69.58381 4304 ft 241 kts 169°
2026-04-21 02:23 43.01427 -69.57990 4302 ft 241 kts 168°
2026-04-21 02:24 42.99779 -69.57567 4297 ft 241 kts 167°
2026-04-21 02:24 42.98180 -69.56900 4297 ft 241 kts 155°
2026-04-21 02:24 42.96901 -69.55519 4291 ft 235 kts 118°
2026-04-21 02:24 42.96530 -69.53413 4305 ft 228 kts 85°
2026-04-21 02:25 42.96827 -69.51299 4305 ft 231 kts 68°
2026-04-21 02:25 42.97497 -69.49416 4283 ft 220 kts 48°
2026-04-21 02:25 42.98609 -69.47951 4299 ft 234 kts 38°
2026-04-21 02:25 43.00027 -69.46691 4309 ft 253 kts 25°
2026-04-21 02:26 43.01748 -69.46097 4306 ft 262 kts 357°
2026-04-21 02:26 43.03393 -69.47143 4320 ft 273 kts 315°
2026-04-21 02:26 43.04202 -69.49416 4319 ft 248 kts 283°
2026-04-21 02:26 43.04391 -69.51388 4323 ft 181 kts 280°
2026-04-21 02:27 43.04683 -69.53022 4310 ft 173 kts 290°
2026-04-21 02:27 43.05100 -69.54536 4305 ft 168 kts 294°
2026-04-21 02:27 43.05545 -69.56000 4303 ft 166 kts 294°
2026-04-21 02:27 43.05974 -69.57457 4301 ft 165 kts 293°
2026-04-21 02:28 43.06395 -69.58902 4295 ft 162 kts 296°
2026-04-21 02:28 43.07174 -69.59893 4266 ft 151 kts 341°
2026-04-21 02:28 43.08162 -69.59763 4261 ft 144 kts 26°
2026-04-21 02:28 43.08885 -69.58681 4239 ft 179 kts 57°
2026-04-21 02:29 43.09226 -69.56824 4282 ft 225 kts 86°
2026-04-21 02:29 43.09184 -69.54548 4303 ft 252 kts 92°
2026-04-21 02:29 43.09034 -69.52083 4302 ft 265 kts 92°
2026-04-21 02:29 43.08864 -69.49565 4302 ft 267 kts 92°
2026-04-21 02:30 43.08715 -69.47033 4300 ft 268 kts 91°
2026-04-21 02:30 43.08591 -69.44488 4300 ft 268 kts 91°
2026-04-21 02:30 43.08487 -69.41939 4301 ft 268 kts 89°
2026-04-21 02:30 43.08401 -69.39521 4298 ft 229 kts 88°
2026-04-21 02:31 43.08375 -69.37562 4294 ft 186 kts 87°
2026-04-21 02:31 43.08390 -69.35926 4294 ft 167 kts 84°
2026-04-21 02:31 43.08393 -69.34290 4306 ft 175 kts 85°
2026-04-21 02:31 43.08616 -69.32826 4280 ft 140 kts 56°
2026-04-21 02:32 43.09282 -69.31922 4302 ft 139 kts 29°
2026-04-21 02:32 43.10206 -69.31324 4314 ft 155 kts 18°
2026-04-21 02:32 43.11258 -69.30856 4314 ft 166 kts 14°
2026-04-21 02:32 43.12026 -69.30571 4311 ft 172 kts 13°
2026-04-21 02:33 43.13214 -69.30189 4309 ft 178 kts 11°
2026-04-21 02:33 43.14853 -69.29798 4297 ft 182 kts 359°
2026-04-21 02:33 43.16014 -69.30406 4298 ft 184 kts 320°
2026-04-21 02:33 43.16720 -69.31879 4301 ft 189 kts 292°
2026-04-21 02:34 43.17061 -69.33624 4305 ft 191 kts 283°
2026-04-21 02:34 43.17237 -69.34830 4307 ft 191 kts 282°
2026-04-21 02:34 43.17495 -69.36622 4308 ft 192 kts 283°
2026-04-21 02:34 43.17694 -69.38434 4306 ft 194 kts 273°
2026-04-21 02:35 43.17323 -69.40196 4302 ft 199 kts 236°
2026-04-21 02:35 43.16157 -69.41165 4300 ft 203 kts 188°
2026-04-21 02:35 43.14751 -69.41168 4309 ft 203 kts 178°
2026-04-21 02:35 43.13350 -69.41307 4302 ft 198 kts 190°
2026-04-21 02:36 43.12041 -69.41781 4303 ft 192 kts 199°
2026-04-21 02:36 43.10796 -69.42377 4307 ft 188 kts 200°
2026-04-21 02:36 43.09563 -69.42968 4307 ft 187 kts 198°
2026-04-21 02:36 43.08318 -69.43506 4304 ft 188 kts 197°
2026-04-21 02:37 43.07057 -69.43988 4307 ft 187 kts 194°
2026-04-21 02:37 43.05795 -69.44419 4301 ft 187 kts 193°
2026-04-21 02:37 43.04530 -69.44817 4299 ft 186 kts 192°
2026-04-21 02:37 43.03270 -69.44964 4292 ft 185 kts 171°
2026-04-21 02:38 43.02124 -69.44224 4297 ft 180 kts 132°
2026-04-21 02:38 43.01470 -69.42809 4310 ft 176 kts 104°
2026-04-21 02:38 43.01276 -69.41215 4312 ft 172 kts 91°
2026-04-21 02:38 43.01141 -69.39564 4305 ft 173 kts 95°
2026-04-21 02:39 43.00898 -69.37947 4297 ft 174 kts 100°
2026-04-21 02:39 43.00578 -69.36373 4299 ft 175 kts 103°
2026-04-21 02:39 43.00225 -69.34785 4298 ft 175 kts 101°
2026-04-21 02:39 42.99887 -69.33195 4295 ft 174 kts 101°
2026-04-21 02:40 42.99583 -69.31598 4302 ft 174 kts 99°
2026-04-21 02:40 42.99305 -69.29990 4297 ft 174 kts 99°
2026-04-21 02:40 42.99037 -69.28386 4295 ft 173 kts 99°
2026-04-21 02:40 42.98769 -69.26782 4301 ft 173 kts 99°
2026-04-21 02:41 42.98523 -69.25190 4304 ft 171 kts 94°
2026-04-21 02:41 42.98665 -69.23637 4288 ft 164 kts 59°
2026-04-21 02:41 42.99504 -69.22672 4292 ft 161 kts 18°
2026-04-21 02:41 43.00610 -69.22475 4301 ft 161 kts
2026-04-21 02:42 43.01727 -69.22390 4303 ft 161 kts
2026-04-21 02:42 43.02836 -69.22182 4303 ft 161 kts 10°
2026-04-21 02:42 43.03930 -69.21828 4303 ft 162 kts 14°
2026-04-21 02:42 43.05016 -69.21417 4306 ft 162 kts 14°
2026-04-21 02:43 43.06102 -69.21012 4303 ft 162 kts 14°
2026-04-21 02:43 43.07197 -69.20626 4300 ft 163 kts 13°
2026-04-21 02:43 43.08281 -69.20258 4283 ft 168 kts 13°
2026-04-21 02:43 43.09411 -69.19891 4297 ft 165 kts 12°
2026-04-21 02:44 43.10497 -69.19550 4297 ft 156 kts 12°
2026-04-21 02:44 43.11589 -69.19211 4303 ft 165 kts 11°
2026-04-21 02:44 43.12726 -69.18865 4300 ft 170 kts 11°
2026-04-21 02:44 43.13893 -69.18513 4303 ft 174 kts 11°
2026-04-21 02:45 43.15081 -69.18154 4304 ft 176 kts 11°
2026-04-21 02:45 43.16275 -69.17786 4302 ft 176 kts 11°
2026-04-21 02:45 43.17473 -69.17414 4302 ft 177 kts 12°
2026-04-21 02:45 43.18675 -69.17037 4301 ft 178 kts 12°
2026-04-21 02:46 43.19845 -69.16668 4290 ft 159 kts 12°
2026-04-21 02:46 43.20906 -69.16325 4299 ft 161 kts 12°
2026-04-21 02:46 43.21963 -69.16277 4291 ft 149 kts 346°
2026-04-21 02:46 43.22813 -69.17071 4299 ft 154 kts 307°
2026-04-21 02:47 43.23102 -69.18396 4303 ft 136 kts 278°
2026-04-21 02:47 43.23174 -69.19666 4298 ft 131 kts 279°
2026-04-21 02:47 43.23302 -69.20955 4316 ft 144 kts 283°
2026-04-21 02:47 43.23549 -69.22453 4326 ft 178 kts 287°
2026-04-21 02:48 43.23881 -69.24214 4316 ft 201 kts 287°
2026-04-21 02:48 43.24235 -69.26140 4312 ft 214 kts 286°
2026-04-21 02:48 43.24594 -69.28195 4308 ft 231 kts 285°
2026-04-21 02:48 43.24964 -69.30398 4306 ft 242 kts 285°
2026-04-21 02:49 43.25338 -69.32674 4298 ft 247 kts 284°
2026-04-21 02:49 43.25719 -69.34988 4303 ft 250 kts 285°
2026-04-21 02:49 43.26106 -69.37316 4302 ft 251 kts 285°
2026-04-21 02:49 43.26502 -69.39653 4304 ft 252 kts 285°
2026-04-21 02:50 43.26898 -69.41964 4305 ft 252 kts 285°
2026-04-21 02:50 43.27271 -69.44329 4304 ft 239 kts 281°
2026-04-21 02:50 43.27394 -69.46278 4289 ft 182 kts 271°
2026-04-21 02:50 43.27056 -69.47784 4284 ft 151 kts 238°
2026-04-21 02:51 43.26360 -69.48732 4295 ft 136 kts 220°
2026-04-21 02:51 43.25559 -69.49468 4311 ft 141 kts 215°
2026-04-21 02:51 43.24682 -69.50141 4318 ft 151 kts 208°
2026-04-21 02:51 43.23647 -69.50637 4313 ft 165 kts 194°
2026-04-21 02:52 43.22496 -69.50873 4320 ft 173 kts 189°
2026-04-21 02:52 43.21284 -69.51116 4313 ft 179 kts 192°
2026-04-21 02:52 43.20051 -69.51430 4313 ft 181 kts 194°
2026-04-21 02:52 43.18816 -69.51808 4309 ft 183 kts 195°
2026-04-21 02:53 43.17580 -69.52221 4315 ft 183 kts 196°
2026-04-21 02:53 43.16341 -69.52648 4315 ft 184 kts 196°
2026-04-21 02:53 43.15098 -69.53074 4316 ft 184 kts 196°
2026-04-21 02:53 43.13847 -69.53491 4314 ft 186 kts 196°
2026-04-21 02:54 43.12592 -69.53902 4311 ft 186 kts 193°
2026-04-21 02:54 43.11331 -69.54319 4313 ft 187 kts 194°
2026-04-21 02:54 43.10069 -69.54728 4311 ft 187 kts 193°
2026-04-21 02:54 43.08803 -69.55125 4307 ft 187 kts 193°
2026-04-21 02:55 43.07534 -69.55510 4310 ft 187 kts 193°
2026-04-21 02:55 43.06258 -69.55890 4310 ft 188 kts 193°
2026-04-21 02:55 43.04983 -69.56271 4310 ft 188 kts 193°
2026-04-21 02:55 43.03709 -69.56654 4311 ft 187 kts 192°
2026-04-21 02:56 43.02442 -69.57037 4307 ft 187 kts 193°
2026-04-21 02:56 42.99902 -69.57809 4304 ft 187 kts 193°
2026-04-21 02:56 42.98629 -69.58198 4307 ft 187 kts 193°
2026-04-21 02:57 42.97351 -69.58520 4307 ft 187 kts 184°
2026-04-21 02:57 42.96110 -69.58106 4299 ft 186 kts 147°
2026-04-21 02:57 42.95289 -69.56801 4307 ft 182 kts 112°
2026-04-21 02:57 42.95002 -69.55140 4314 ft 180 kts 95°
2026-04-21 02:58 42.94842 -69.53446 4316 ft 180 kts 96°
2026-04-21 02:58 42.94623 -69.51761 4311 ft 180 kts 97°
2026-04-21 02:58 42.94325 -69.50095 4307 ft 180 kts 102°
2026-04-21 02:58 42.93990 -69.48472 4307 ft 180 kts 102°
2026-04-21 02:59 42.93645 -69.46828 4307 ft 180 kts 103°
2026-04-21 02:59 42.93322 -69.45179 4306 ft 180 kts 101°
2026-04-21 02:59 42.93019 -69.43530 4303 ft 179 kts 100°
2026-04-21 02:59 42.92732 -69.41884 4304 ft 178 kts 98°
2026-04-21 03:00 42.92452 -69.40235 4306 ft 178 kts 98°
2026-04-21 03:00 42.92184 -69.38584 4306 ft 178 kts 99°
2026-04-21 03:00 42.91919 -69.36935 4305 ft 178 kts 98°
2026-04-21 03:00 42.91656 -69.35288 4306 ft 178 kts 99°
2026-04-21 03:01 42.91391 -69.33641 4301 ft 178 kts 98°
2026-04-21 03:01 42.91119 -69.31995 4308 ft 178 kts 99°
2026-04-21 03:01 42.90842 -69.30351 4305 ft 178 kts 98°
2026-04-21 03:01 42.90559 -69.28704 4304 ft 178 kts 100°
2026-04-21 03:02 42.90282 -69.27059 4307 ft 178 kts 98°
2026-04-21 03:02 42.90007 -69.25410 4308 ft 178 kts 100°
2026-04-21 03:02 42.89733 -69.23760 4307 ft 178 kts 99°
2026-04-21 03:02 42.89454 -69.22109 4308 ft 179 kts 99°
2026-04-21 03:03 42.89174 -69.20458 4311 ft 179 kts 99°
2026-04-21 03:03 42.88891 -69.18802 4308 ft 179 kts 98°
2026-04-21 03:03 42.88644 -69.17140 4307 ft 178 kts 93°
2026-04-21 03:03 42.88829 -69.15521 4301 ft 172 kts 61°
2026-04-21 03:04 42.89680 -69.14452 4295 ft 168 kts 19°
2026-04-21 03:04 42.90826 -69.14364 4306 ft 166 kts 354°
2026-04-21 03:04 42.91980 -69.14442 4301 ft 166 kts
2026-04-21 03:04 42.93118 -69.14158 4299 ft 167 kts 15°
2026-04-21 03:05 42.94214 -69.13630 4302 ft 167 kts 20°
2026-04-21 03:05 42.95290 -69.13044 4305 ft 167 kts 20°
2026-04-21 03:05 42.96382 -69.12494 4303 ft 167 kts 18°
2026-04-21 03:05 42.97490 -69.12008 4306 ft 167 kts 15°
2026-04-21 03:06 42.98608 -69.11582 4308 ft 167 kts 14°
2026-04-21 03:06 42.99737 -69.11199 4308 ft 168 kts 12°
2026-04-21 03:06 43.00859 -69.10848 4307 ft 167 kts 12°
2026-04-21 03:06 43.01997 -69.10508 4305 ft 167 kts 12°
2026-04-21 03:07 43.03135 -69.10175 4299 ft 168 kts 11°
2026-04-21 03:07 43.04278 -69.09841 4300 ft 168 kts 11°
2026-04-21 03:07 43.05414 -69.09501 4305 ft 168 kts 12°
2026-04-21 03:07 43.06555 -69.09154 4305 ft 169 kts 12°
2026-04-21 03:08 43.07699 -69.08800 4305 ft 168 kts 12°
2026-04-21 03:08 43.08837 -69.08443 4304 ft 168 kts 12°
2026-04-21 03:08 43.09976 -69.08085 4306 ft 169 kts 12°
2026-04-21 03:08 43.11120 -69.07725 4305 ft 169 kts 12°
2026-04-21 03:09 43.12260 -69.07364 4307 ft 168 kts 12°
2026-04-21 03:09 43.13398 -69.07004 4309 ft 168 kts 12°
2026-04-21 03:09 43.14541 -69.06643 4308 ft 168 kts 12°
2026-04-21 03:09 43.15680 -69.06284 4306 ft 167 kts 12°
2026-04-21 03:10 43.16816 -69.05925 4308 ft 168 kts 12°
2026-04-21 03:10 43.17957 -69.05566 4312 ft 169 kts 12°
2026-04-21 03:10 43.19101 -69.05205 4311 ft 168 kts 12°
2026-04-21 03:10 43.20242 -69.04843 4308 ft 168 kts 12°
2026-04-21 03:11 43.21387 -69.04479 4310 ft 169 kts 12°
2026-04-21 03:11 43.22530 -69.04116 4307 ft 168 kts 12°
2026-04-21 03:11 43.23669 -69.03754 4308 ft 168 kts 11°
2026-04-21 03:11 43.24814 -69.03390 4307 ft 169 kts 11°
2026-04-21 03:12 43.25962 -69.03025 4304 ft 169 kts 11°
2026-04-21 03:12 43.27092 -69.02678 4307 ft 168 kts
2026-04-21 03:12 43.28242 -69.02770 4295 ft 164 kts 339°
2026-04-21 03:12 43.28995 -69.03689 4279 ft 134 kts 300°
2026-04-21 03:13 43.29305 -69.04884 4315 ft 148 kts 286°
2026-04-21 03:13 43.29582 -69.06479 4330 ft 192 kts 285°
2026-04-21 03:13 43.29896 -69.08394 4324 ft 216 kts 284°
2026-04-21 03:13 43.30235 -69.10476 4319 ft 230 kts 284°
2026-04-21 03:14 43.30601 -69.12667 4313 ft 239 kts 284°
2026-04-21 03:14 43.30978 -69.14905 4306 ft 243 kts 284°
2026-04-21 03:14 43.31366 -69.17171 4309 ft 245 kts 284°
2026-04-21 03:14 43.31754 -69.19452 4304 ft 245 kts 284°
2026-04-21 03:15 43.32130 -69.21728 4305 ft 244 kts 283°
2026-04-21 03:15 43.32511 -69.24005 4308 ft 245 kts 284°
2026-04-21 03:15 43.32896 -69.26290 4311 ft 246 kts 284°
2026-04-21 03:15 43.33275 -69.28574 4309 ft 244 kts 284°
2026-04-21 03:16 43.33638 -69.30839 4313 ft 243 kts 284°
2026-04-21 03:16 43.34007 -69.33102 4308 ft 243 kts 284°
2026-04-21 03:16 43.34386 -69.35360 4309 ft 244 kts 284°
2026-04-21 03:16 43.34770 -69.37623 4312 ft 241 kts 284°
2026-04-21 03:17 43.35146 -69.39849 4320 ft 238 kts 284°
2026-04-21 03:17 43.35524 -69.42061 4326 ft 237 kts 284°
2026-04-21 03:17 43.35899 -69.44264 4320 ft 237 kts 284°
2026-04-21 03:17 43.36273 -69.46497 4321 ft 241 kts 283°
2026-04-21 03:18 43.36647 -69.48750 4326 ft 242 kts 284°
2026-04-21 03:18 43.36999 -69.50856 4321 ft 216 kts 284°
2026-04-21 03:18 43.37329 -69.52863 4320 ft 215 kts 283°
2026-04-21 03:18 43.37509 -69.54685 4316 ft 167 kts 270°
2026-04-21 03:19 43.37278 -69.56076 4315 ft 145 kts 249°
2026-04-21 03:19 43.36696 -69.57276 4323 ft 157 kts 232°
2026-04-21 03:19 43.35858 -69.58270 4316 ft 161 kts 217°
2026-04-21 03:19 43.34798 -69.58712 4316 ft 161 kts 189°
2026-04-21 03:20 43.33684 -69.58780 4312 ft 160 kts 188°
2026-04-21 03:20 43.32469 -69.59013 4329 ft 195 kts 193°
2026-04-21 03:20 43.31067 -69.59486 4327 ft 217 kts 197°
2026-04-21 03:20 43.30088 -69.59860 4319 ft 226 kts 197°
2026-04-21 03:21 43.28517 -69.60456 4322 ft 240 kts 197°
2026-04-21 03:21 43.26998 -69.61004 4313 ft 208 kts 197°
2026-04-21 03:21 43.25538 -69.61535 4322 ft 223 kts 197°
2026-04-21 03:21 43.24007 -69.62071 4323 ft 230 kts 195°
2026-04-21 03:22 43.22443 -69.62589 4321 ft 233 kts 196°
2026-04-21 03:22 43.20855 -69.63089 4323 ft 236 kts 195°
2026-04-21 03:22 43.19248 -69.63578 4321 ft 237 kts 194°
2026-04-21 03:22 43.17632 -69.64064 4322 ft 237 kts 194°
2026-04-21 03:23 43.16019 -69.64549 4316 ft 238 kts 194°
2026-04-21 03:23 43.14406 -69.65037 4313 ft 238 kts 193°
2026-04-21 03:23 43.12784 -69.65543 4312 ft 239 kts 193°
2026-04-21 03:23 43.11156 -69.66048 4316 ft 239 kts 193°
2026-04-21 03:24 43.09530 -69.66547 4318 ft 240 kts 193°
2026-04-21 03:24 43.07899 -69.67041 4318 ft 240 kts 193°
2026-04-21 03:24 43.06266 -69.67533 4319 ft 240 kts 193°
2026-04-21 03:24 43.04634 -69.68024 4318 ft 240 kts 193°
2026-04-21 03:25 43.03005 -69.68515 4318 ft 240 kts 193°
2026-04-21 03:25 43.01375 -69.69007 4320 ft 241 kts 193°
2026-04-21 03:25 42.99762 -69.69493 4319 ft 240 kts 193°
2026-04-21 03:25 42.98129 -69.69989 4318 ft 240 kts 193°
2026-04-21 03:26 42.96502 -69.70485 4319 ft 240 kts 193°
2026-04-21 03:26 42.94870 -69.70982 4320 ft 241 kts 193°
2026-04-21 03:26 42.93233 -69.71476 4317 ft 240 kts 193°
2026-04-21 03:26 42.91757 -69.71698 4301 ft 189 kts 178°
2026-04-21 03:27 42.90602 -69.71354 4294 ft 158 kts 153°
2026-04-21 03:27 42.89785 -69.70508 4306 ft 141 kts 131°
2026-04-21 03:27 42.89187 -69.69517 4307 ft 131 kts 123°
2026-04-21 03:27 42.88694 -69.68445 4324 ft 137 kts 115°
2026-04-21 03:28 42.88388 -69.67149 4323 ft 145 kts 97°
2026-04-21 03:28 42.88229 -69.65876 4323 ft 134 kts 96°
2026-04-21 03:28 42.88059 -69.64528 4332 ft 159 kts 97°
2026-04-21 03:28 42.87829 -69.62956 4332 ft 181 kts 98°
2026-04-21 03:29 42.87534 -69.61117 4331 ft 216 kts 100°
2026-04-21 03:29 42.87178 -69.59014 4324 ft 237 kts 102°
2026-04-21 03:29 42.86791 -69.56777 4317 ft 247 kts 101°
2026-04-21 03:29 42.86387 -69.54473 4315 ft 252 kts 102°
2026-04-21 03:30 42.85975 -69.52134 4314 ft 255 kts 100°
2026-04-21 03:30 42.85552 -69.49787 4309 ft 255 kts 101°
2026-04-21 03:30 42.85134 -69.47439 4309 ft 255 kts 100°
2026-04-21 03:30 42.84729 -69.45088 4311 ft 255 kts 101°
2026-04-21 03:31 42.84336 -69.42733 4315 ft 255 kts 100°
2026-04-21 03:31 42.83943 -69.40378 4310 ft 255 kts 100°
2026-04-21 03:31 42.83550 -69.38023 4305 ft 255 kts 101°
2026-04-21 03:31 42.83159 -69.35668 4303 ft 255 kts 101°
2026-04-21 03:32 42.82770 -69.33312 4307 ft 255 kts 100°
2026-04-21 03:32 42.82385 -69.30954 4305 ft 255 kts 101°
2026-04-21 03:32 42.82000 -69.28627 4312 ft 255 kts 101°
2026-04-21 03:32 42.81599 -69.26238 4309 ft 256 kts 100°
2026-04-21 03:33 42.81201 -69.23912 4307 ft 256 kts 100°
2026-04-21 03:33 42.80802 -69.21553 4310 ft 256 kts 100°
2026-04-21 03:33 42.80407 -69.19192 4311 ft 256 kts 101°
2026-04-21 03:33 42.80010 -69.16837 4306 ft 255 kts 99°
2026-04-21 03:34 42.79608 -69.14487 4308 ft 255 kts 100°
2026-04-21 03:34 42.79202 -69.12139 4305 ft 251 kts 99°
2026-04-21 03:34 42.78976 -69.10129 4289 ft 182 kts 87°
2026-04-21 03:34 42.79216 -69.08685 4279 ft 142 kts 61°
2026-04-21 03:35 42.79732 -69.07572 4293 ft 137 kts 50°
2026-04-21 03:35 42.80334 -69.06590 4300 ft 134 kts 43°
2026-04-21 03:35 42.81027 -69.05760 4302 ft 132 kts 32°
2026-04-21 03:35 42.81843 -69.05205 4308 ft 132 kts 17°
2026-04-21 03:36 42.82737 -69.04943 4319 ft 132 kts
2026-04-21 03:36 42.83760 -69.04716 4328 ft 170 kts
2026-04-21 03:36 42.85016 -69.04389 4324 ft 196 kts 11°
2026-04-21 03:36 42.86391 -69.03970 4320 ft 208 kts 13°
2026-04-21 03:37 42.87821 -69.03499 4308 ft 214 kts 13°
2026-04-21 03:37 42.89277 -69.03008 4307 ft 217 kts 13°
2026-04-21 03:37 42.90747 -69.02513 4306 ft 218 kts 13°
2026-04-21 03:37 42.92221 -69.02025 4307 ft 218 kts 13°
2026-04-21 03:38 42.93703 -69.01543 4312 ft 219 kts 13°
2026-04-21 03:38 42.95186 -69.01067 4313 ft 219 kts 13°
2026-04-21 03:38 42.96670 -69.00595 4312 ft 220 kts 13°
2026-04-21 03:38 42.98160 -69.00126 4312 ft 219 kts 13°
2026-04-21 03:39 42.99645 -68.99661 4309 ft 219 kts 12°
2026-04-21 03:39 43.01137 -68.99197 4310 ft 220 kts 12°
2026-04-21 03:39 43.02629 -68.98733 4311 ft 220 kts 12°
2026-04-21 03:39 43.04120 -68.98260 4309 ft 221 kts 12°
2026-04-21 03:40 43.05618 -68.97782 4316 ft 221 kts 12°
2026-04-21 03:40 43.07113 -68.97304 4313 ft 221 kts 12°
2026-04-21 03:40 43.08611 -68.96829 4314 ft 221 kts 12°
2026-04-21 03:40 43.10112 -68.96355 4312 ft 221 kts 12°
2026-04-21 03:41 43.11590 -68.95891 4312 ft 221 kts 12°
2026-04-21 03:41 43.13092 -68.95421 4315 ft 221 kts 12°
2026-04-21 03:41 43.14592 -68.94948 4316 ft 221 kts 12°
2026-04-21 03:41 43.16096 -68.94472 4315 ft 222 kts 12°
2026-04-21 03:42 43.17597 -68.93995 4312 ft 221 kts 12°
2026-04-21 03:42 43.19096 -68.93518 4311 ft 221 kts 12°
2026-04-21 03:42 43.20596 -68.93043 4311 ft 221 kts 12°
2026-04-21 03:42 43.22093 -68.92564 4312 ft 221 kts 11°
2026-04-21 03:43 43.23599 -68.92081 4318 ft 223 kts 11°
2026-04-21 03:43 43.25125 -68.91590 4316 ft 222 kts 11°
2026-04-21 03:43 43.26632 -68.91106 4314 ft 223 kts 12°
2026-04-21 03:43 43.28146 -68.90626 4313 ft 223 kts 11°
2026-04-21 03:44 43.29657 -68.90145 4312 ft 223 kts 11°
2026-04-21 03:44 43.31169 -68.89668 4316 ft 223 kts 11°
2026-04-21 03:44 43.32532 -68.89302 4303 ft 170 kts
2026-04-21 03:44 43.33571 -68.89453 4289 ft 134 kts 341°
2026-04-21 03:45 43.34352 -68.89992 4299 ft 121 kts 325°
2026-04-21 03:45 43.34967 -68.90738 4318 ft 120 kts 313°
2026-04-21 03:45 43.35503 -68.91742 4329 ft 141 kts 302°
2026-04-21 03:45 43.35866 -68.93078 4336 ft 157 kts 284°
2026-04-21 03:46 43.36077 -68.94603 4328 ft 167 kts 282°
2026-04-21 03:46 43.36308 -68.96263 4331 ft 195 kts 283°
2026-04-21 03:46 43.36625 -68.98215 4327 ft 221 kts 284°
2026-04-21 03:46 43.37004 -69.00334 4323 ft 234 kts 285°
2026-04-21 03:47 43.37411 -69.02533 4326 ft 241 kts 285°
2026-04-21 03:47 43.37827 -69.04781 4327 ft 244 kts 285°
2026-04-21 03:47 43.38239 -69.07050 4324 ft 246 kts 284°
2026-04-21 03:47 43.38643 -69.09336 4324 ft 246 kts 284°
2026-04-21 03:48 43.39033 -69.11620 4325 ft 246 kts 284°
2026-04-21 03:48 43.39414 -69.13904 4319 ft 246 kts 283°
2026-04-21 03:48 43.39786 -69.16198 4321 ft 246 kts 283°
2026-04-21 03:48 43.40158 -69.18491 4324 ft 243 kts 285°
2026-04-21 03:49 43.40526 -69.20754 4321 ft 242 kts 284°
2026-04-21 03:49 43.40891 -69.23015 4320 ft 242 kts 284°
2026-04-21 03:49 43.41261 -69.25286 4324 ft 243 kts 285°
2026-04-21 03:49 43.41634 -69.27542 4324 ft 242 kts 285°
2026-04-21 03:50 43.42008 -69.29793 4323 ft 241 kts 285°
2026-04-21 03:50 43.42385 -69.32036 4323 ft 240 kts 284°
2026-04-21 03:50 43.42770 -69.34265 4317 ft 242 kts 281°
2026-04-21 03:50 43.43154 -69.36538 4327 ft 244 kts 284°
2026-04-21 03:51 43.43542 -69.38809 4330 ft 244 kts 284°
2026-04-21 03:51 43.43932 -69.41077 4330 ft 244 kts 284°
2026-04-21 03:51 43.44314 -69.43345 4329 ft 243 kts 284°
2026-04-21 03:51 43.44681 -69.45581 4332 ft 238 kts 284°
2026-04-21 03:52 43.45040 -69.47815 4332 ft 241 kts 283°
2026-04-21 03:52 43.45400 -69.50068 4333 ft 241 kts 283°
2026-04-21 03:52 43.45762 -69.52316 4331 ft 239 kts 284°
2026-04-21 03:52 43.46055 -69.54207 4329 ft 184 kts 283°
2026-04-21 03:53 43.46312 -69.55986 4330 ft 192 kts 283°
2026-04-21 03:53 43.46588 -69.57777 4330 ft 195 kts 284°
2026-04-21 03:53 43.46889 -69.59604 4331 ft 196 kts 284°
2026-04-21 03:53 43.47203 -69.61441 4338 ft 198 kts 284°
2026-04-21 03:54 43.47511 -69.63298 4338 ft 200 kts 282°
2026-04-21 03:54 43.47438 -69.65063 4316 ft 156 kts 251°
2026-04-21 03:54 43.46859 -69.66049 4321 ft 121 kts 224°
2026-04-21 03:54 43.46170 -69.66684 4321 ft 125 kts 220°
2026-04-21 03:55 43.45335 -69.67255 4332 ft 144 kts 208°
2026-04-21 03:55 43.44340 -69.67706 4333 ft 157 kts 202°
2026-04-21 03:55 43.43199 -69.68056 4327 ft 188 kts 197°
2026-04-21 03:55 43.41803 -69.68477 4337 ft 220 kts 197°
2026-04-21 03:56 43.40236 -69.68967 4336 ft 240 kts 197°
2026-04-21 03:56 43.38568 -69.69495 4335 ft 251 kts 195°
2026-04-21 03:56 43.36839 -69.70034 4333 ft 258 kts 196°
2026-04-21 03:56 43.35070 -69.70575 4333 ft 262 kts 194°
2026-04-21 03:57 43.33286 -69.71117 4334 ft 264 kts 194°
2026-04-21 03:57 43.31485 -69.71644 4331 ft 265 kts 194°
2026-04-21 03:57 43.29670 -69.72149 4333 ft 266 kts 193°
2026-04-21 03:57 43.27870 -69.72722 4330 ft 265 kts 198°
2026-04-21 03:58 43.26110 -69.73458 4328 ft 265 kts 198°
2026-04-21 03:58 43.24342 -69.74188 4331 ft 266 kts 199°
2026-04-21 03:58 43.22571 -69.74928 4331 ft 266 kts 198°
2026-04-21 03:58 43.20805 -69.75660 4329 ft 266 kts 200°
2026-04-21 03:59 43.19033 -69.76395 4327 ft 266 kts 200°
2026-04-21 03:59 43.17260 -69.77119 4321 ft 266 kts 199°
2026-04-21 03:59 43.15494 -69.77868 4321 ft 266 kts 199°
2026-04-21 04:00 43.11957 -69.79429 4328 ft 268 kts 199°
2026-04-21 04:00 43.10184 -69.80219 4330 ft 268 kts 199°
2026-04-21 04:00 43.08412 -69.81013 4329 ft 268 kts 199°
2026-04-21 04:00 43.06637 -69.81801 4331 ft 269 kts 199°
2026-04-21 04:01 43.04858 -69.82587 4333 ft 269 kts 199°
2026-04-21 04:01 43.03083 -69.83379 4329 ft 269 kts 200°
2026-04-21 04:01 43.01305 -69.84171 4326 ft 269 kts 199°
2026-04-21 04:01 42.99524 -69.84949 4332 ft 268 kts 197°
2026-04-21 04:02 42.97701 -69.85438 4325 ft 268 kts 188°
2026-04-21 04:02 42.95839 -69.85733 4330 ft 269 kts 187°
2026-04-21 04:02 42.93979 -69.86036 4329 ft 269 kts 188°
2026-04-21 04:02 42.92130 -69.86413 4332 ft 269 kts 190°
2026-04-21 04:03 42.90282 -69.86869 4327 ft 269 kts 192°
2026-04-21 04:03 42.88441 -69.87371 4323 ft 270 kts 194°
2026-04-21 04:03 42.86630 -69.87899 4322 ft 269 kts 194°
2026-04-21 04:03 42.84802 -69.88451 4324 ft 269 kts 195°
2026-04-21 04:04 42.82973 -69.89002 4326 ft 270 kts 195°
2026-04-21 04:04 42.81134 -69.89542 4320 ft 270 kts 193°
2026-04-21 04:04 42.79296 -69.90075 4318 ft 270 kts 192°
2026-04-21 04:04 42.77454 -69.90594 4319 ft 270 kts 192°
2026-04-21 04:05 42.75648 -69.91277 4322 ft 270 kts 202°
2026-04-21 04:05 42.73981 -69.92422 4322 ft 268 kts 213°
2026-04-21 04:05 42.72487 -69.93942 4323 ft 267 kts 221°
2026-04-21 04:05 42.71084 -69.95598 4321 ft 267 kts 223°
2026-04-21 04:06 42.69679 -69.97257 4321 ft 267 kts 221°
2026-04-21 04:06 42.68239 -69.98853 4328 ft 268 kts 220°
2026-04-21 04:06 42.66752 -70.00382 4324 ft 269 kts 218°
2026-04-21 04:06 42.65224 -70.01850 4322 ft 269 kts 217°
2026-04-21 04:07 42.63675 -70.03269 4318 ft 269 kts 215°
2026-04-21 04:07 42.62108 -70.04663 4319 ft 270 kts 214°
2026-04-21 04:07 42.60524 -70.06044 4315 ft 270 kts 214°
2026-04-21 04:07 42.58941 -70.07423 4322 ft 270 kts 214°
2026-04-21 04:08 42.57364 -70.08810 4320 ft 270 kts 214°
2026-04-21 04:08 42.55786 -70.10207 4326 ft 271 kts 214°
2026-04-21 04:08 42.54128 -70.11423 4319 ft 271 kts 204°
2026-04-21 04:08 42.52309 -70.11733 4308 ft 272 kts 169°
2026-04-21 04:09 42.50619 -70.10666 4312 ft 269 kts 142°
2026-04-21 04:09 42.49165 -70.09063 4320 ft 270 kts 137°
2026-04-21 04:09 42.47640 -70.07579 4311 ft 272 kts 152°
2026-04-21 04:09 42.45787 -70.07245 4305 ft 273 kts 190°
2026-04-21 04:10 42.44041 -70.08229 4313 ft 273 kts 212°
2026-04-21 04:10 42.42434 -70.09610 4323 ft 275 kts 213°
2026-04-21 04:10 42.41321 -70.10434 4309 ft 276 kts 204°
2026-04-21 04:10 42.38869 -70.10240 4300 ft 271 kts 148°
2026-04-21 04:11 42.37914 -70.09182 4304 ft 267 kts 131°
2026-04-21 04:11 42.36733 -70.07263 4316 ft 265 kts 126°
2026-04-21 04:11 42.35481 -70.05429 4299 ft 266 kts 139°
2026-04-21 04:11 42.33733 -70.04698 4294 ft 273 kts 184°
2026-04-21 04:12 42.31965 -70.05603 4309 ft 275 kts 214°
2026-04-21 04:12 42.30449 -70.07162 4316 ft 271 kts 220°
2026-04-21 04:12 42.28925 -70.08541 4298 ft 258 kts 202°
2026-04-21 04:12 42.27201 -70.08562 4286 ft 251 kts 156°
2026-04-21 04:13 42.25758 -70.07268 4303 ft 249 kts 135°
2026-04-21 04:13 42.24441 -70.05762 4295 ft 248 kts 140°
2026-04-21 04:13 42.22825 -70.04980 4289 ft 252 kts 176°
2026-04-21 04:13 42.21104 -70.05290 4301 ft 250 kts 194°
2026-04-21 04:14 42.19389 -70.05843 4304 ft 259 kts 191°
2026-04-21 04:14 42.17578 -70.05848 4320 ft 264 kts 168°
2026-04-21 04:14 42.15805 -70.05170 4327 ft 267 kts 159°
2026-04-21 04:14 42.14095 -70.04455 4326 ft 252 kts 164°
2026-04-21 04:15 42.12355 -70.04132 4322 ft 249 kts 176°
2026-04-21 04:15 42.10689 -70.04459 4317 ft 237 kts 201°
2026-04-21 04:15 42.09293 -70.05474 4323 ft 228 kts 214°
2026-04-21 04:15 42.07976 -70.06620 4323 ft 223 kts 214°
2026-04-21 04:16 42.06691 -70.07766 4325 ft 220 kts 216°
2026-04-21 04:16 42.05428 -70.09006 4333 ft 229 kts 219°
2026-04-21 04:16 42.04188 -70.10393 4336 ft 234 kts 223°
2026-04-21 04:16 42.02961 -70.11842 4339 ft 236 kts 223°
2026-04-21 04:17 42.01703 -70.13282 4323 ft 242 kts 221°
2026-04-21 04:17 42.00354 -70.14726 4322 ft 252 kts 218°
2026-04-21 04:17 41.98942 -70.16177 4325 ft 258 kts 218°
2026-04-21 04:17 41.97513 -70.17670 4328 ft 261 kts 219°
2026-04-21 04:18 41.96106 -70.19223 4327 ft 262 kts 221°
2026-04-21 04:18 41.94723 -70.20816 4318 ft 263 kts 223°
2026-04-21 04:18 41.93330 -70.22423 4316 ft 264 kts 222°
2026-04-21 04:18 41.91920 -70.24001 4315 ft 264 kts 220°
2026-04-21 04:19 41.90475 -70.25527 4312 ft 264 kts 219°
2026-04-21 04:19 41.89012 -70.27011 4316 ft 263 kts 219°
2026-04-21 04:19 41.87560 -70.28509 4315 ft 264 kts 220°
2026-04-21 04:19 41.86141 -70.30062 4295 ft 263 kts 222°
2026-04-21 04:20 41.84764 -70.31649 4304 ft 261 kts 224°
2026-04-21 04:20 41.83392 -70.33254 4307 ft 261 kts 223°
2026-04-21 04:20 41.82009 -70.34826 4316 ft 260 kts 221°
2026-04-21 04:20 41.80608 -70.36330 4311 ft 253 kts 219°
2026-04-21 04:21 41.79209 -70.37721 4304 ft 246 kts 218°
2026-04-21 04:21 41.77858 -70.39061 4278 ft 240 kts 219°
2026-04-21 04:21 41.76563 -70.40439 4237 ft 236 kts 222°
2026-04-21 04:21 41.75317 -70.41865 3946 ft 242 kts 223°
2026-04-21 04:22 41.74048 -70.43332 3238 ft 223 kts 222°
2026-04-21 04:22 41.72922 -70.44558 2505 ft 197 kts 220°
2026-04-21 04:22 41.71969 -70.45510 2204 ft 147 kts 219°
2026-04-21 04:22 41.71192 -70.46274 1819 ft 142 kts 221°
2026-04-21 04:23 41.70367 -70.47178 1309 ft 161 kts 224°
2026-04-21 04:23 41.69513 -70.48159 886 ft 159 kts 222°
2026-04-21 04:23 41.68657 -70.49079 589 ft 155 kts 219°
2026-04-21 04:23 41.67844 -70.49945 464 ft 144 kts 221°
2026-04-21 04:24 41.67075 -70.50785 301 ft 142 kts 220°
2026-04-21 04:24 41.66340 -70.51569 142 ft 125 kts 218°
2026-04-21 04:24 41.65736 -70.52220 130 ft 102 kts 218°
2026-04-21 04:24 41.65367 -70.52605 117 ft 10 kts 214°
2026-04-21 04:25 41.65365 -70.52607 117 ft 0 kts 214°
2026-04-21 04:25 41.65298 -70.52667 116 ft 0 kts 214°
2026-04-21 04:25 41.65204 -70.52753 115 ft 36 kts 214°